PSTDB SBCG-SBSI

Flight info

Callsign PSTDB
Flight time 1h 55m
Altitude 26000
Route EPDA1B KOXAL A430 CIA Z85 DORNO DCT
Aircraft TBM8/L-SDFGRTWY/S

Departure

Time 2026-04-20 23:21
Airport Campo Grande Airport (SBCG)

Arrival

Time 2026-04-21 01:17
Airport Presidente João Batista Figueiredo Airport (SBSI)
Time Latitude Longitude Altitude Speed Heading
2026-04-20 22:53 -20.45839 -54.67199 1834 ft 0 kts 314°
2026-04-20 23:15 -20.45827 -54.67194 1834 ft 3 kts 96°
2026-04-20 23:15 -20.45874 -54.67209 1834 ft 13 kts 223°
2026-04-20 23:16 -20.45927 -54.67196 1834 ft 11 kts 108°
2026-04-20 23:16 -20.45872 -54.67127 1834 ft 14 kts 65°
2026-04-20 23:16 -20.45859 -54.67028 1834 ft 17 kts 86°
2026-04-20 23:16 -20.45846 -54.66897 1834 ft 18 kts 84°
2026-04-20 23:17 -20.45835 -54.66772 1834 ft 12 kts 89°
2026-04-20 23:17 -20.45881 -54.66712 1834 ft 14 kts 160°
2026-04-20 23:17 -20.45972 -54.66676 1833 ft 15 kts 158°
2026-04-20 23:17 -20.46065 -54.66636 1833 ft 5 kts 160°
2026-04-20 23:18 -20.46067 -54.66636 1833 ft 0 kts 159°
2026-04-20 23:19 -20.46091 -54.66626 1833 ft 8 kts 159°
2026-04-20 23:19 -20.46133 -54.66597 1833 ft 4 kts 127°
2026-04-20 23:19 -20.46153 -54.66584 1833 ft 5 kts 194°
2026-04-20 23:19 -20.46162 -54.66591 1833 ft 0 kts 224°
2026-04-20 23:20 -20.46164 -54.66592 1833 ft 4 kts 223°
2026-04-20 23:20 -20.46300 -54.66723 1832 ft 51 kts 222°
2026-04-20 23:20 -20.46673 -54.67083 1834 ft 95 kts 221°
2026-04-20 23:20 -20.47223 -54.67629 1959 ft 115 kts 220°
2026-04-20 23:21 -20.47811 -54.68221 2306 ft 118 kts 220°
2026-04-20 23:21 -20.48444 -54.68826 2629 ft 124 kts 223°
2026-04-20 23:21 -20.49084 -54.69417 3048 ft 120 kts 217°
2026-04-20 23:21 -20.49711 -54.69990 3416 ft 122 kts 218°
2026-04-20 23:22 -20.50392 -54.70648 3622 ft 142 kts 221°
2026-04-20 23:22 -20.50879 -54.71619 3830 ft 160 kts 262°
2026-04-20 23:22 -20.50683 -54.72823 4055 ft 174 kts 301°
2026-04-20 23:22 -20.49886 -54.73815 4374 ft 179 kts 315°
2026-04-20 23:23 -20.49040 -54.74798 4807 ft 182 kts 314°
2026-04-20 23:23 -20.48186 -54.75799 5222 ft 182 kts 315°
2026-04-20 23:23 -20.47335 -54.76794 5660 ft 182 kts 315°
2026-04-20 23:23 -20.46475 -54.77797 6073 ft 183 kts 316°
2026-04-20 23:24 -20.45610 -54.78803 6459 ft 185 kts 316°
2026-04-20 23:24 -20.44744 -54.79819 6851 ft 185 kts 316°
2026-04-20 23:24 -20.43840 -54.80863 6989 ft 202 kts 316°
2026-04-20 23:24 -20.42840 -54.82019 7001 ft 221 kts 315°
2026-04-20 23:25 -20.41770 -54.83268 7002 ft 234 kts 315°
2026-04-20 23:25 -20.40650 -54.84577 7000 ft 243 kts 315°
2026-04-20 23:25 -20.39399 -54.85802 6992 ft 245 kts 330°
2026-04-20 23:25 -20.37846 -54.86535 6981 ft 245 kts 347°
2026-04-20 23:26 -20.36228 -54.86843 7405 ft 228 kts 352°
2026-04-20 23:26 -20.34729 -54.87172 7869 ft 217 kts 350°
2026-04-20 23:26 -20.33283 -54.87483 8339 ft 207 kts 351°
2026-04-20 23:26 -20.31884 -54.87766 8818 ft 200 kts 351°
2026-04-20 23:27 -20.30536 -54.88039 9303 ft 194 kts 351°
2026-04-20 23:27 -20.29229 -54.88304 9795 ft 189 kts 351°
2026-04-20 23:27 -20.27887 -54.88576 9884 ft 206 kts 351°
2026-04-20 23:27 -20.26423 -54.88868 9923 ft 220 kts 351°
2026-04-20 23:28 -20.25013 -54.89158 10657 ft 194 kts 349°
2026-04-20 23:28 -20.23709 -54.89433 11079 ft 192 kts 350°
2026-04-20 23:28 -20.22383 -54.89698 11403 ft 194 kts 350°
2026-04-20 23:28 -20.21065 -54.89965 11749 ft 195 kts 349°
2026-04-20 23:29 -20.19724 -54.90237 12086 ft 197 kts 349°
2026-04-20 23:29 -20.18377 -54.90511 12436 ft 198 kts 349°
2026-04-20 23:29 -20.17017 -54.90788 12771 ft 200 kts 349°
2026-04-20 23:29 -20.15651 -54.91066 13127 ft 200 kts 349°
2026-04-20 23:30 -20.14277 -54.91345 13464 ft 202 kts 349°
2026-04-20 23:30 -20.12899 -54.91626 13813 ft 202 kts 348°
2026-04-20 23:30 -20.11512 -54.91907 14109 ft 204 kts 348°
2026-04-20 23:30 -20.10117 -54.92190 14412 ft 204 kts 348°
2026-04-20 23:31 -20.08717 -54.92476 14709 ft 205 kts 348°
2026-04-20 23:31 -20.07306 -54.92762 15000 ft 207 kts 348°
2026-04-20 23:31 -20.05889 -54.93050 15300 ft 208 kts 348°
2026-04-20 23:31 -20.04469 -54.93338 15598 ft 208 kts 348°
2026-04-20 23:32 -20.03040 -54.93628 15900 ft 209 kts 348°
2026-04-20 23:32 -20.01609 -54.93918 16193 ft 210 kts 348°
2026-04-20 23:32 -20.00172 -54.94210 16491 ft 211 kts 348°
2026-04-20 23:32 -19.98728 -54.94503 16785 ft 211 kts 348°
2026-04-20 23:33 -19.97280 -54.94797 17081 ft 212 kts 348°
2026-04-20 23:33 -19.95827 -54.95091 17370 ft 213 kts 348°
2026-04-20 23:33 -19.94367 -54.95387 17661 ft 214 kts 348°
2026-04-20 23:33 -19.92902 -54.95685 17944 ft 215 kts 348°
2026-04-20 23:34 -19.91432 -54.95982 18232 ft 215 kts 348°
2026-04-20 23:34 -19.89956 -54.96282 18479 ft 216 kts 347°
2026-04-20 23:34 -19.88492 -54.96578 18715 ft 217 kts 347°
2026-04-20 23:34 -19.87004 -54.96880 18951 ft 218 kts 347°
2026-04-20 23:35 -19.85494 -54.97121 19176 ft 221 kts 353°
2026-04-20 23:35 -19.82419 -54.97397 19647 ft 223 kts 352°
2026-04-20 23:35 -19.80870 -54.97547 19881 ft 224 kts 352°
2026-04-20 23:36 -19.79315 -54.97694 20110 ft 225 kts 352°
2026-04-20 23:36 -19.77749 -54.97842 20341 ft 226 kts 352°
2026-04-20 23:36 -19.76213 -54.97986 20760 ft 216 kts 351°
2026-04-20 23:36 -19.74756 -54.98126 21228 ft 204 kts 350°
2026-04-20 23:37 -19.73344 -54.98264 21498 ft 205 kts 350°
2026-04-20 23:37 -19.71923 -54.98395 21752 ft 205 kts 350°
2026-04-20 23:37 -19.70500 -54.98528 21983 ft 206 kts 349°
2026-04-20 23:37 -19.69068 -54.98663 22212 ft 207 kts 349°
2026-04-20 23:38 -19.67630 -54.98798 22448 ft 208 kts 349°
2026-04-20 23:38 -19.66202 -54.98933 22673 ft 209 kts 349°
2026-04-20 23:38 -19.64749 -54.99070 22898 ft 210 kts 349°
2026-04-20 23:38 -19.63287 -54.99209 23122 ft 211 kts 349°
2026-04-20 23:39 -19.61818 -54.99347 23340 ft 212 kts 348°
2026-04-20 23:39 -19.60339 -54.99486 23549 ft 214 kts 348°
2026-04-20 23:39 -19.58853 -54.99626 23726 ft 215 kts 348°
2026-04-20 23:39 -19.57361 -54.99766 23919 ft 215 kts 348°
2026-04-20 23:40 -19.55865 -54.99908 24102 ft 216 kts 348°
2026-04-20 23:40 -19.54363 -55.00049 24280 ft 217 kts 348°
2026-04-20 23:40 -19.52848 -55.00193 24443 ft 219 kts 348°
2026-04-20 23:40 -19.51324 -55.00336 24616 ft 220 kts 348°
2026-04-20 23:41 -19.49794 -55.00479 24795 ft 221 kts 348°
2026-04-20 23:41 -19.48278 -55.00622 24966 ft 222 kts 348°
2026-04-20 23:41 -19.46735 -55.00768 25142 ft 223 kts 348°
2026-04-20 23:41 -19.45189 -55.00915 25336 ft 223 kts 348°
2026-04-20 23:42 -19.43644 -55.01059 25515 ft 223 kts 348°
2026-04-20 23:42 -19.42095 -55.01204 25691 ft 224 kts 348°
2026-04-20 23:42 -19.40540 -55.01351 25851 ft 225 kts 348°
2026-04-20 23:42 -19.38970 -55.01500 25952 ft 229 kts 348°
2026-04-20 23:43 -19.37346 -55.01653 25951 ft 239 kts 348°
2026-04-20 23:43 -19.35664 -55.01809 25961 ft 246 kts 348°
2026-04-20 23:43 -19.33925 -55.01976 25960 ft 255 kts 347°
2026-04-20 23:43 -19.32205 -55.02408 25961 ft 257 kts 336°
2026-04-20 23:44 -19.30464 -55.02953 25966 ft 264 kts 338°
2026-04-20 23:44 -19.28692 -55.03481 25963 ft 270 kts 338°
2026-04-20 23:44 -19.26861 -55.04029 25951 ft 276 kts 338°
2026-04-20 23:44 -19.25002 -55.04592 25957 ft 280 kts 338°
2026-04-20 23:45 -19.23109 -55.05166 25959 ft 284 kts 338°
2026-04-20 23:45 -19.21189 -55.05745 25960 ft 288 kts 339°
2026-04-20 23:45 -19.19254 -55.06329 25949 ft 291 kts 339°
2026-04-20 23:45 -19.17298 -55.06920 25950 ft 294 kts 339°
2026-04-20 23:46 -19.15321 -55.07516 25946 ft 296 kts 339°
2026-04-20 23:46 -19.13329 -55.08118 25945 ft 298 kts 339°
2026-04-20 23:46 -19.11328 -55.08721 25945 ft 300 kts 339°
2026-04-20 23:46 -19.09315 -55.09328 25945 ft 301 kts 339°
2026-04-20 23:47 -19.07292 -55.09938 25948 ft 303 kts 339°
2026-04-20 23:47 -19.05289 -55.10542 25946 ft 304 kts 339°
2026-04-20 23:47 -19.03253 -55.11156 25945 ft 305 kts 339°
2026-04-20 23:47 -19.01208 -55.11772 25946 ft 306 kts 339°
2026-04-20 23:48 -18.99159 -55.12389 25944 ft 306 kts 339°
2026-04-20 23:48 -18.97109 -55.13007 25944 ft 307 kts 339°
2026-04-20 23:48 -18.95053 -55.13625 25942 ft 308 kts 339°
2026-04-20 23:48 -18.92993 -55.14246 25942 ft 308 kts 339°
2026-04-20 23:49 -18.90931 -55.14866 25938 ft 308 kts 339°
2026-04-20 23:49 -18.88865 -55.15488 25939 ft 309 kts 339°
2026-04-20 23:49 -18.86796 -55.16111 25939 ft 309 kts 339°
2026-04-20 23:49 -18.84727 -55.16733 25928 ft 309 kts 339°
2026-04-20 23:50 -18.82682 -55.17348 25926 ft 309 kts 339°
2026-04-20 23:50 -18.80613 -55.17970 25926 ft 309 kts 339°
2026-04-20 23:50 -18.78542 -55.18593 25926 ft 310 kts 339°
2026-04-20 23:50 -18.76468 -55.19215 25926 ft 310 kts 339°
2026-04-20 23:51 -18.74394 -55.19838 25918 ft 310 kts 339°
2026-04-20 23:51 -18.72320 -55.20461 25917 ft 310 kts 339°
2026-04-20 23:51 -18.70244 -55.21084 25917 ft 310 kts 339°
2026-04-20 23:51 -18.68167 -55.21707 25917 ft 310 kts 339°
2026-04-20 23:52 -18.66089 -55.22331 25916 ft 311 kts 339°
2026-04-20 23:52 -18.64010 -55.22954 25913 ft 311 kts 339°
2026-04-20 23:52 -18.61929 -55.23579 25913 ft 311 kts 339°
2026-04-20 23:52 -18.59847 -55.24203 25913 ft 311 kts 339°
2026-04-20 23:53 -18.57761 -55.24829 25914 ft 311 kts 339°
2026-04-20 23:53 -18.55676 -55.25453 25914 ft 311 kts 339°
2026-04-20 23:53 -18.53596 -55.26076 25915 ft 311 kts 339°
2026-04-20 23:53 -18.51511 -55.26701 25911 ft 311 kts 339°
2026-04-20 23:54 -18.49422 -55.27326 25909 ft 311 kts 339°
2026-04-20 23:54 -18.47342 -55.27949 25910 ft 311 kts 339°
2026-04-20 23:54 -18.45262 -55.28571 25909 ft 311 kts 339°
2026-04-20 23:54 -18.43181 -55.29194 25909 ft 311 kts 339°
2026-04-20 23:55 -18.41098 -55.29817 25913 ft 311 kts 339°
2026-04-20 23:55 -18.39019 -55.30439 25912 ft 311 kts 339°
2026-04-20 23:55 -18.36966 -55.31053 25912 ft 311 kts 339°
2026-04-20 23:55 -18.34883 -55.31675 25912 ft 311 kts 339°
2026-04-20 23:56 -18.32805 -55.32297 25909 ft 311 kts 339°
2026-04-20 23:56 -18.30721 -55.32919 25909 ft 311 kts 339°
2026-04-20 23:56 -18.28642 -55.33540 25909 ft 311 kts 339°
2026-04-20 23:56 -18.26561 -55.34162 25909 ft 311 kts 339°
2026-04-20 23:57 -18.24480 -55.34783 25909 ft 311 kts 339°
2026-04-20 23:57 -18.22401 -55.35403 25911 ft 311 kts 339°
2026-04-20 23:57 -18.20317 -55.36026 25900 ft 311 kts 340°
2026-04-20 23:57 -18.18237 -55.36646 25900 ft 311 kts 340°
2026-04-20 23:58 -18.16154 -55.37267 25900 ft 311 kts 340°
2026-04-20 23:58 -18.14070 -55.37889 25900 ft 311 kts 340°
2026-04-20 23:58 -18.11987 -55.38509 25900 ft 311 kts 340°
2026-04-20 23:58 -18.09905 -55.39130 25900 ft 311 kts 340°
2026-04-20 23:59 -18.07844 -55.39744 25900 ft 311 kts 340°
2026-04-20 23:59 -18.05761 -55.40365 25900 ft 311 kts 340°
2026-04-20 23:59 -18.03669 -55.40987 25900 ft 311 kts 340°
2026-04-20 23:59 -18.01581 -55.41610 25900 ft 311 kts 340°
2026-04-21 00:00 -17.99495 -55.42230 25901 ft 311 kts 340°
2026-04-21 00:00 -17.97412 -55.42850 25901 ft 311 kts 340°
2026-04-21 00:00 -17.95327 -55.43470 25901 ft 311 kts 339°
2026-04-21 00:00 -17.93241 -55.44092 25901 ft 312 kts 340°
2026-04-21 00:01 -17.91155 -55.44711 25901 ft 312 kts 340°
2026-04-21 00:01 -17.89067 -55.45331 25898 ft 312 kts 340°
2026-04-21 00:01 -17.86975 -55.45954 25898 ft 312 kts 340°
2026-04-21 00:01 -17.84884 -55.46576 25898 ft 312 kts 340°
2026-04-21 00:02 -17.82786 -55.47199 25898 ft 313 kts 340°
2026-04-21 00:02 -17.81397 -55.47611 25898 ft 313 kts 340°
2026-04-21 00:02 -17.78622 -55.48435 25898 ft 313 kts 340°
2026-04-21 00:02 -17.76531 -55.49056 25898 ft 313 kts 340°
2026-04-21 00:03 -17.74437 -55.49677 25901 ft 313 kts 340°
2026-04-21 00:03 -17.72341 -55.50299 25901 ft 313 kts 340°
2026-04-21 00:03 -17.70924 -55.50719 25901 ft 313 kts 340°
2026-04-21 00:03 -17.68150 -55.51542 25901 ft 313 kts 340°
2026-04-21 00:04 -17.66733 -55.51962 25893 ft 313 kts 340°
2026-04-21 00:04 -17.64637 -55.52584 25894 ft 313 kts 340°
2026-04-21 00:04 -17.62565 -55.53199 25895 ft 313 kts 340°
2026-04-21 00:04 -17.60462 -55.53827 25895 ft 313 kts 340°
2026-04-21 00:05 -17.58366 -55.54451 25896 ft 313 kts 340°
2026-04-21 00:05 -17.56269 -55.55074 25895 ft 313 kts 340°
2026-04-21 00:05 -17.54172 -55.55698 25894 ft 313 kts 340°
2026-04-21 00:05 -17.52076 -55.56322 25894 ft 313 kts 340°
2026-04-21 00:06 -17.49977 -55.56946 25895 ft 313 kts 340°
2026-04-21 00:06 -17.47880 -55.57569 25895 ft 313 kts 340°
2026-04-21 00:06 -17.45786 -55.58192 25897 ft 313 kts 340°
2026-04-21 00:06 -17.43686 -55.58815 25897 ft 313 kts 340°
2026-04-21 00:07 -17.41590 -55.59438 25897 ft 313 kts 340°
2026-04-21 00:07 -17.39495 -55.60060 25898 ft 313 kts 340°
2026-04-21 00:07 -17.37397 -55.60684 25898 ft 313 kts 340°
2026-04-21 00:07 -17.35297 -55.61307 25898 ft 313 kts 340°
2026-04-21 00:08 -17.33228 -55.61920 25898 ft 313 kts 340°
2026-04-21 00:08 -17.31130 -55.62543 25898 ft 314 kts 340°
2026-04-21 00:08 -17.29024 -55.63168 25898 ft 314 kts 340°
2026-04-21 00:08 -17.26920 -55.63792 25898 ft 314 kts 340°
2026-04-21 00:09 -17.24820 -55.64414 25901 ft 314 kts 340°
2026-04-21 00:09 -17.22721 -55.65037 25901 ft 314 kts 340°
2026-04-21 00:09 -17.20617 -55.65660 25901 ft 314 kts 340°
2026-04-21 00:09 -17.18519 -55.66282 25901 ft 314 kts 340°
2026-04-21 00:10 -17.16417 -55.66905 25899 ft 314 kts 340°
2026-04-21 00:10 -17.14316 -55.67526 25899 ft 314 kts 340°
2026-04-21 00:10 -17.12216 -55.68149 25901 ft 314 kts 341°
2026-04-21 00:10 -17.10115 -55.68770 25900 ft 314 kts 341°
2026-04-21 00:11 -17.08009 -55.69394 25902 ft 314 kts 341°
2026-04-21 00:11 -17.05907 -55.70015 25902 ft 314 kts 341°
2026-04-21 00:11 -17.03803 -55.70638 25901 ft 314 kts 341°
2026-04-21 00:11 -17.01702 -55.71258 25899 ft 314 kts 341°
2026-04-21 00:12 -16.99625 -55.71872 25900 ft 314 kts 341°
2026-04-21 00:12 -16.97518 -55.72495 25900 ft 314 kts 341°
2026-04-21 00:12 -16.95414 -55.73117 25900 ft 314 kts 341°
2026-04-21 00:12 -16.93308 -55.73739 25900 ft 314 kts 341°
2026-04-21 00:13 -16.91206 -55.74360 25903 ft 314 kts 341°
2026-04-21 00:13 -16.89100 -55.74983 25903 ft 314 kts 341°
2026-04-21 00:13 -16.86996 -55.75603 25903 ft 314 kts 341°
2026-04-21 00:13 -16.84890 -55.76226 25902 ft 314 kts 341°
2026-04-21 00:14 -16.82784 -55.76847 25901 ft 314 kts 341°
2026-04-21 00:14 -16.80678 -55.77468 25900 ft 315 kts 341°
2026-04-21 00:14 -16.78569 -55.78090 25901 ft 315 kts 341°
2026-04-21 00:14 -16.76458 -55.78714 25901 ft 315 kts 341°
2026-04-21 00:15 -16.74350 -55.79334 25903 ft 315 kts 341°
2026-04-21 00:15 -16.72272 -55.79946 25902 ft 315 kts 341°
2026-04-21 00:15 -16.70166 -55.80567 25903 ft 314 kts 341°
2026-04-21 00:15 -16.68062 -55.81187 25899 ft 314 kts 341°
2026-04-21 00:16 -16.65956 -55.81808 25900 ft 314 kts 341°
2026-04-21 00:16 -16.63852 -55.82427 25900 ft 314 kts 341°
2026-04-21 00:16 -16.61744 -55.83048 25900 ft 314 kts 341°
2026-04-21 00:16 -16.59633 -55.83669 25899 ft 314 kts 341°
2026-04-21 00:17 -16.57528 -55.84288 25900 ft 314 kts 342°
2026-04-21 00:17 -16.55425 -55.84907 25900 ft 314 kts 342°
2026-04-21 00:17 -16.53318 -55.85527 25900 ft 314 kts 342°
2026-04-21 00:17 -16.51211 -55.86146 25901 ft 315 kts 342°
2026-04-21 00:18 -16.49106 -55.86766 25900 ft 315 kts 342°
2026-04-21 00:18 -16.46994 -55.87386 25901 ft 315 kts 342°
2026-04-21 00:18 -16.44888 -55.88006 25899 ft 315 kts 342°
2026-04-21 00:18 -16.42779 -55.88625 25899 ft 315 kts 342°
2026-04-21 00:19 -16.40672 -55.89244 25900 ft 315 kts 342°
2026-04-21 00:19 -16.38589 -55.89856 25900 ft 315 kts 342°
2026-04-21 00:19 -16.36476 -55.90476 25900 ft 315 kts 342°
2026-04-21 00:19 -16.34365 -55.91096 25899 ft 315 kts 342°
2026-04-21 00:20 -16.32252 -55.91716 25903 ft 315 kts 342°
2026-04-21 00:20 -16.30144 -55.92335 25903 ft 315 kts 342°
2026-04-21 00:20 -16.28036 -55.92953 25904 ft 315 kts 342°
2026-04-21 00:20 -16.25923 -55.93572 25903 ft 315 kts 342°
2026-04-21 00:21 -16.23814 -55.94192 25904 ft 315 kts 342°
2026-04-21 00:21 -16.21703 -55.94810 25903 ft 315 kts 342°
2026-04-21 00:21 -16.19589 -55.95430 25903 ft 315 kts 342°
2026-04-21 00:21 -16.17475 -55.96050 25904 ft 316 kts 342°
2026-04-21 00:22 -16.15361 -55.96670 25903 ft 316 kts 342°
2026-04-21 00:22 -16.13274 -55.97281 25906 ft 316 kts 342°
2026-04-21 00:22 -16.11160 -55.97900 25907 ft 316 kts 342°
2026-04-21 00:22 -16.09044 -55.98519 25907 ft 316 kts 342°
2026-04-21 00:23 -16.06923 -55.99140 25906 ft 316 kts 342°
2026-04-21 00:23 -16.04807 -55.99760 25902 ft 316 kts 342°
2026-04-21 00:23 -16.02694 -56.00378 25910 ft 315 kts 342°
2026-04-21 00:23 -16.00582 -56.00996 25910 ft 316 kts 342°
2026-04-21 00:24 -15.98467 -56.01614 25908 ft 316 kts 342°
2026-04-21 00:24 -15.96353 -56.02233 25908 ft 316 kts 342°
2026-04-21 00:24 -15.94236 -56.02852 25908 ft 316 kts 342°
2026-04-21 00:24 -15.92119 -56.03470 25907 ft 316 kts 342°
2026-04-21 00:25 -15.89999 -56.04090 25907 ft 316 kts 342°
2026-04-21 00:25 -15.87880 -56.04709 25906 ft 316 kts 342°
2026-04-21 00:25 -15.85763 -56.05328 25906 ft 316 kts 342°
2026-04-21 00:25 -15.83644 -56.05946 25905 ft 316 kts 342°
2026-04-21 00:26 -15.81526 -56.06564 25904 ft 316 kts 342°
2026-04-21 00:26 -15.79407 -56.07184 25905 ft 316 kts 342°
2026-04-21 00:26 -15.77287 -56.07802 25904 ft 316 kts 342°
2026-04-21 00:26 -15.75167 -56.08421 25904 ft 316 kts 342°
2026-04-21 00:27 -15.73047 -56.09039 25903 ft 316 kts 342°
2026-04-21 00:27 -15.70956 -56.09649 25902 ft 316 kts 342°
2026-04-21 00:27 -15.68834 -56.10268 25903 ft 316 kts 342°
2026-04-21 00:27 -15.66714 -56.10884 25901 ft 316 kts 343°
2026-04-21 00:28 -15.64542 -56.11215 25902 ft 318 kts 358°
2026-04-21 00:28 -15.62327 -56.11196 25904 ft 318 kts 359°
2026-04-21 00:28 -15.60114 -56.11196 25910 ft 318 kts 359°
2026-04-21 00:28 -15.57903 -56.11202 25915 ft 318 kts 359°
2026-04-21 00:29 -15.55690 -56.11198 25909 ft 318 kts 359°
2026-04-21 00:29 -15.53477 -56.11192 25911 ft 318 kts 359°
2026-04-21 00:29 -15.51265 -56.11190 25910 ft 318 kts 359°
2026-04-21 00:29 -15.49049 -56.11187 25909 ft 318 kts 359°
2026-04-21 00:30 -15.46838 -56.11185 25920 ft 318 kts 359°
2026-04-21 00:30 -15.44626 -56.11182 25918 ft 318 kts 359°
2026-04-21 00:30 -15.42412 -56.11178 25917 ft 318 kts 359°
2026-04-21 00:30 -15.40198 -56.11176 25917 ft 318 kts 359°
2026-04-21 00:31 -15.37983 -56.11173 25920 ft 318 kts 359°
2026-04-21 00:31 -15.35766 -56.11171 25924 ft 318 kts 359°
2026-04-21 00:31 -15.33548 -56.11167 25927 ft 318 kts 359°
2026-04-21 00:31 -15.31329 -56.11164 25922 ft 319 kts 359°
2026-04-21 00:32 -15.29114 -56.11161 25926 ft 319 kts 359°
2026-04-21 00:32 -15.26896 -56.11159 25927 ft 319 kts 359°
2026-04-21 00:32 -15.24706 -56.11156 25926 ft 319 kts 359°
2026-04-21 00:32 -15.22483 -56.11153 25925 ft 319 kts 359°
2026-04-21 00:33 -15.20260 -56.11150 25932 ft 319 kts 359°
2026-04-21 00:33 -15.18041 -56.11147 25928 ft 319 kts 359°
2026-04-21 00:33 -15.15818 -56.11145 25930 ft 319 kts 359°
2026-04-21 00:33 -15.13597 -56.11142 25928 ft 319 kts 359°
2026-04-21 00:34 -15.11376 -56.11138 25924 ft 319 kts 359°
2026-04-21 00:34 -15.09153 -56.11135 25936 ft 319 kts 359°
2026-04-21 00:34 -15.06933 -56.11133 25927 ft 319 kts 359°
2026-04-21 00:34 -15.04713 -56.11130 25932 ft 319 kts 359°
2026-04-21 00:35 -15.02492 -56.11127 25929 ft 319 kts 359°
2026-04-21 00:35 -15.00266 -56.11125 25929 ft 319 kts 359°
2026-04-21 00:35 -14.98054 -56.11031 25926 ft 319 kts
2026-04-21 00:35 -14.95891 -56.10635 25929 ft 319 kts
2026-04-21 00:36 -14.93701 -56.10260 25930 ft 319 kts
2026-04-21 00:36 -14.91508 -56.09898 25935 ft 319 kts
2026-04-21 00:36 -14.89318 -56.09524 25930 ft 319 kts
2026-04-21 00:36 -14.87127 -56.09144 25934 ft 319 kts
2026-04-21 00:37 -14.84936 -56.08767 25936 ft 319 kts
2026-04-21 00:37 -14.82743 -56.08393 25933 ft 319 kts
2026-04-21 00:37 -14.80554 -56.08019 25939 ft 319 kts
2026-04-21 00:37 -14.78362 -56.07643 25933 ft 319 kts
2026-04-21 00:38 -14.76173 -56.07268 25928 ft 319 kts
2026-04-21 00:38 -14.73980 -56.06892 25928 ft 319 kts
2026-04-21 00:38 -14.71789 -56.06518 25928 ft 319 kts
2026-04-21 00:38 -14.69595 -56.06142 25928 ft 319 kts
2026-04-21 00:39 -14.67405 -56.05768 25935 ft 319 kts
2026-04-21 00:39 -14.65212 -56.05393 25930 ft 319 kts
2026-04-21 00:39 -14.63020 -56.05018 25930 ft 319 kts
2026-04-21 00:39 -14.60830 -56.04644 25933 ft 319 kts
2026-04-21 00:40 -14.58636 -56.04268 25935 ft 319 kts
2026-04-21 00:40 -14.56445 -56.03894 25935 ft 319 kts
2026-04-21 00:40 -14.54251 -56.03519 25935 ft 319 kts
2026-04-21 00:40 -14.52055 -56.03144 25939 ft 319 kts
2026-04-21 00:41 -14.49864 -56.02770 25940 ft 319 kts
2026-04-21 00:41 -14.47670 -56.02395 25940 ft 319 kts
2026-04-21 00:41 -14.45474 -56.02020 25940 ft 320 kts
2026-04-21 00:41 -14.43279 -56.01646 25940 ft 320 kts
2026-04-21 00:42 -14.41085 -56.01272 25938 ft 320 kts
2026-04-21 00:42 -14.38890 -56.00897 25938 ft 320 kts
2026-04-21 00:42 -14.36726 -56.00528 25943 ft 320 kts
2026-04-21 00:42 -14.34525 -56.00152 25943 ft 320 kts
2026-04-21 00:43 -14.32332 -55.99779 25940 ft 320 kts
2026-04-21 00:43 -14.30136 -55.99404 25946 ft 319 kts
2026-04-21 00:43 -14.27941 -55.99031 25940 ft 319 kts
2026-04-21 00:43 -14.25745 -55.98656 25955 ft 319 kts
2026-04-21 00:44 -14.23552 -55.98282 25946 ft 319 kts
2026-04-21 00:44 -14.21360 -55.97909 25945 ft 319 kts
2026-04-21 00:44 -14.19165 -55.97535 25945 ft 319 kts
2026-04-21 00:45 -14.14778 -55.96788 25948 ft 319 kts
2026-04-21 00:45 -14.12581 -55.96414 25948 ft 319 kts
2026-04-21 00:45 -14.10420 -55.96047 25948 ft 319 kts
2026-04-21 00:45 -14.08197 -55.95669 25948 ft 319 kts
2026-04-21 00:46 -14.06035 -55.95300 25948 ft 319 kts
2026-04-21 00:46 -14.03844 -55.94928 25948 ft 319 kts
2026-04-21 00:46 -14.01648 -55.94555 25948 ft 319 kts
2026-04-21 00:46 -13.99456 -55.94182 25948 ft 319 kts
2026-04-21 00:47 -13.97263 -55.93809 25950 ft 319 kts
2026-04-21 00:47 -13.95073 -55.93433 25952 ft 319 kts 10°
2026-04-21 00:47 -13.92896 -55.92989 25950 ft 319 kts 12°
2026-04-21 00:47 -13.90728 -55.92507 25951 ft 319 kts 12°
2026-04-21 00:48 -13.88553 -55.92056 25950 ft 319 kts 11°
2026-04-21 00:48 -13.86374 -55.91621 25950 ft 319 kts 11°
2026-04-21 00:48 -13.84197 -55.91175 25950 ft 319 kts 12°
2026-04-21 00:48 -13.82020 -55.90723 25949 ft 319 kts 12°
2026-04-21 00:49 -13.79840 -55.90275 25950 ft 319 kts 12°
2026-04-21 00:49 -13.77664 -55.89829 25951 ft 319 kts 12°
2026-04-21 00:49 -13.75489 -55.89382 25951 ft 319 kts 12°
2026-04-21 00:49 -13.73312 -55.88936 25951 ft 319 kts 12°
2026-04-21 00:50 -13.71164 -55.88494 25951 ft 319 kts 12°
2026-04-21 00:50 -13.68986 -55.88048 25951 ft 319 kts 12°
2026-04-21 00:50 -13.66807 -55.87600 25951 ft 319 kts 12°
2026-04-21 00:50 -13.65368 -55.87305 25951 ft 319 kts 12°
2026-04-21 00:51 -13.63190 -55.86859 25951 ft 318 kts 12°
2026-04-21 00:51 -13.61020 -55.86413 25951 ft 318 kts 12°
2026-04-21 00:51 -13.58845 -55.85967 25951 ft 318 kts 12°
2026-04-21 00:51 -13.56677 -55.85522 25951 ft 318 kts 12°
2026-04-21 00:52 -13.54499 -55.85076 25951 ft 318 kts 12°
2026-04-21 00:52 -13.52328 -55.84630 25950 ft 318 kts 12°
2026-04-21 00:52 -13.50154 -55.84185 25955 ft 318 kts 12°
2026-04-21 00:52 -13.48010 -55.83746 25950 ft 318 kts 12°
2026-04-21 00:53 -13.45837 -55.83301 25953 ft 318 kts 12°
2026-04-21 00:53 -13.43669 -55.82856 25958 ft 318 kts 12°
2026-04-21 00:53 -13.41501 -55.82412 25954 ft 318 kts 12°
2026-04-21 00:53 -13.39329 -55.81968 25954 ft 318 kts 12°
2026-04-21 00:54 -13.37160 -55.81524 25951 ft 318 kts 12°
2026-04-21 00:54 -13.34992 -55.81080 25951 ft 318 kts 12°
2026-04-21 00:54 -13.32822 -55.80636 25951 ft 318 kts 12°
2026-04-21 00:54 -13.30657 -55.80193 25951 ft 318 kts 12°
2026-04-21 00:55 -13.28486 -55.79749 25954 ft 318 kts 12°
2026-04-21 00:55 -13.26319 -55.79306 25954 ft 318 kts 12°
2026-04-21 00:55 -13.24152 -55.78862 25954 ft 318 kts 12°
2026-04-21 00:55 -13.21984 -55.78420 25953 ft 318 kts 12°
2026-04-21 00:56 -13.19813 -55.77976 25955 ft 318 kts 12°
2026-04-21 00:56 -13.17638 -55.77531 25955 ft 318 kts 12°
2026-04-21 00:56 -13.15492 -55.77093 25954 ft 318 kts 12°
2026-04-21 00:56 -13.13323 -55.76649 25952 ft 318 kts 12°
2026-04-21 00:57 -13.11151 -55.76206 25954 ft 318 kts 12°
2026-04-21 00:57 -13.08979 -55.75762 25954 ft 318 kts 12°
2026-04-21 00:57 -13.06805 -55.75319 25954 ft 318 kts 12°
2026-04-21 00:57 -13.04635 -55.74875 25954 ft 318 kts 12°
2026-04-21 00:58 -13.02461 -55.74433 25954 ft 318 kts 12°
2026-04-21 00:58 -13.00261 -55.73982 25680 ft 326 kts 12°
2026-04-21 00:58 -12.98016 -55.73510 25342 ft 331 kts 13°
2026-04-21 00:58 -12.95762 -55.73045 25006 ft 328 kts 12°
2026-04-21 00:59 -12.93534 -55.72597 24670 ft 324 kts 12°
2026-04-21 00:59 -12.91326 -55.72157 24338 ft 321 kts 12°
2026-04-21 00:59 -12.89141 -55.71711 24010 ft 318 kts 12°
2026-04-21 00:59 -12.86976 -55.71268 23686 ft 316 kts 12°
2026-04-21 01:00 -12.84847 -55.70834 23332 ft 314 kts 12°
2026-04-21 01:00 -12.82702 -55.70397 22946 ft 312 kts 12°
2026-04-21 01:00 -12.80578 -55.69965 22566 ft 310 kts 12°
2026-04-21 01:00 -12.78469 -55.69535 22191 ft 308 kts 13°
2026-04-21 01:01 -12.76373 -55.69108 21817 ft 305 kts 12°
2026-04-21 01:01 -12.74298 -55.68686 21452 ft 303 kts 12°
2026-04-21 01:01 -12.72239 -55.68266 21090 ft 300 kts 13°
2026-04-21 01:01 -12.70200 -55.67852 20736 ft 297 kts 12°
2026-04-21 01:02 -12.68177 -55.67439 20382 ft 295 kts 13°
2026-04-21 01:02 -12.66172 -55.67032 20034 ft 292 kts 13°
2026-04-21 01:02 -12.64188 -55.66628 19693 ft 290 kts 13°
2026-04-21 01:02 -12.62218 -55.66234 19352 ft 295 kts 12°
2026-04-21 01:03 -12.60186 -55.65826 19021 ft 300 kts 13°
2026-04-21 01:03 -12.58135 -55.65400 18692 ft 302 kts 13°
2026-04-21 01:03 -12.56069 -55.64976 18366 ft 303 kts 12°
2026-04-21 01:03 -12.53996 -55.64556 18003 ft 303 kts 12°
2026-04-21 01:04 -12.51932 -55.64136 17622 ft 302 kts 12°
2026-04-21 01:04 -12.49868 -55.63717 17247 ft 301 kts 12°
2026-04-21 01:04 -12.47817 -55.63299 16876 ft 300 kts 12°
2026-04-21 01:04 -12.45774 -55.62885 16510 ft 299 kts 12°
2026-04-21 01:05 -12.43743 -55.62471 16146 ft 297 kts 12°
2026-04-21 01:05 -12.41720 -55.62062 15790 ft 295 kts 12°
2026-04-21 01:05 -12.39711 -55.61653 15434 ft 294 kts 12°
2026-04-21 01:05 -12.37712 -55.61247 15083 ft 292 kts 12°
2026-04-21 01:06 -12.35725 -55.60844 14742 ft 290 kts 12°
2026-04-21 01:06 -12.33750 -55.60443 14400 ft 289 kts 12°
2026-04-21 01:06 -12.31781 -55.60044 14061 ft 287 kts 12°
2026-04-21 01:06 -12.29829 -55.59647 13719 ft 285 kts 12°
2026-04-21 01:07 -12.27889 -55.59254 13335 ft 283 kts 12°
2026-04-21 01:07 -12.25958 -55.58862 12958 ft 282 kts 12°
2026-04-21 01:07 -12.24040 -55.58473 12586 ft 280 kts 12°
2026-04-21 01:07 -12.22136 -55.58087 12218 ft 278 kts 12°
2026-04-21 01:08 -12.20244 -55.57703 11857 ft 276 kts 12°
2026-04-21 01:08 -12.18386 -55.57326 11501 ft 275 kts 12°
2026-04-21 01:08 -12.16517 -55.56948 11146 ft 273 kts 12°
2026-04-21 01:08 -12.14656 -55.56570 10790 ft 271 kts 12°
2026-04-21 01:09 -12.12809 -55.56196 10448 ft 270 kts 12°
2026-04-21 01:09 -12.10975 -55.55824 10104 ft 268 kts 12°
2026-04-21 01:09 -12.09154 -55.55456 9754 ft 266 kts 12°
2026-04-21 01:09 -12.07339 -55.55088 9374 ft 264 kts 12°
2026-04-21 01:10 -12.05540 -55.54724 9000 ft 263 kts 12°
2026-04-21 01:10 -12.03751 -55.54361 8629 ft 261 kts 12°
2026-04-21 01:10 -12.01974 -55.54000 8258 ft 259 kts 13°
2026-04-21 01:10 -12.00230 -55.53648 7906 ft 258 kts 13°
2026-04-21 01:11 -11.98476 -55.53293 7548 ft 256 kts 13°
2026-04-21 01:11 -11.96735 -55.52941 7194 ft 254 kts 13°
2026-04-21 01:11 -11.95008 -55.52591 6845 ft 252 kts 13°
2026-04-21 01:11 -11.93292 -55.52243 6499 ft 250 kts 13°
2026-04-21 01:12 -11.91616 -55.51898 6139 ft 227 kts 14°
2026-04-21 01:12 -11.90222 -55.51594 5789 ft 186 kts 13°
2026-04-21 01:12 -11.88974 -55.51372 5580 ft 186 kts 11°
2026-04-21 01:12 -11.87680 -55.51129 5381 ft 191 kts 13°
2026-04-21 01:13 -11.86406 -55.50854 5183 ft 184 kts 14°
2026-04-21 01:13 -11.85157 -55.50657 4986 ft 181 kts
2026-04-21 01:13 -11.83937 -55.50956 4794 ft 182 kts 337°
2026-04-21 01:13 -11.82935 -55.51724 4432 ft 181 kts 312°
2026-04-21 01:14 -11.82212 -55.52761 4064 ft 178 kts 306°
2026-04-21 01:14 -11.81690 -55.53851 3699 ft 171 kts 283°
2026-04-21 01:14 -11.81664 -55.55039 3366 ft 166 kts 259°
2026-04-21 01:14 -11.82072 -55.56105 3098 ft 156 kts 238°
2026-04-21 01:15 -11.82801 -55.56906 2613 ft 152 kts 216°
2026-04-21 01:15 -11.83728 -55.57368 2171 ft 147 kts 194°
2026-04-21 01:15 -11.84720 -55.57597 2071 ft 144 kts 192°
2026-04-21 01:15 -11.85653 -55.57857 1775 ft 132 kts 194°
2026-04-21 01:16 -11.86453 -55.58062 1611 ft 101 kts 193°
2026-04-21 01:16 -11.87103 -55.58249 1410 ft 102 kts 193°
2026-04-21 01:16 -11.87806 -55.58443 1253 ft 106 kts 195°
2026-04-21 01:16 -11.88409 -55.58605 1236 ft 65 kts 193°
2026-04-21 01:17 -11.88641 -55.58662 1243 ft 11 kts 176°
2026-04-21 01:17 -11.88660 -55.58680 1235 ft 6 kts 332°
2026-04-21 01:17 -11.88585 -55.58656 1242 ft 17 kts 18°
2026-04-21 01:17 -11.88436 -55.58612 1235 ft 27 kts 14°
2026-04-21 01:18 -11.88220 -55.58554 1235 ft 37 kts 14°
2026-04-21 01:18 -11.87993 -55.58493 1232 ft 27 kts 14°
2026-04-21 01:18 -11.87860 -55.58457 1229 ft 9 kts 15°
2026-04-21 01:18 -11.87824 -55.58426 1230 ft 7 kts 92°
2026-04-21 01:19 -11.87836 -55.58369 1236 ft 10 kts 103°
2026-04-21 01:19 -11.87867 -55.58299 1245 ft 10 kts 159°
2026-04-21 01:19 -11.87928 -55.58305 1239 ft 8 kts 201°
2026-04-21 01:19 -11.87973 -55.58301 1239 ft 6 kts 110°
2026-04-21 01:20 -11.87960 -55.58282 1239 ft 4 kts 15°
2026-04-21 01:20 -11.87953 -55.58279 1239 ft 0 kts 17°